Temp
70 69 69 68 71 71 62 63 62 65 64 68 76 77 80 79 79 79 81 81 85 86 85 83 83 85 86 86 85 85 80 80 79 80 79 79 78 77 77 77 77 76 73 70
66 72 70 70 72 72 73 70 62 69 67 73 77 79 80 81 82 80 82 83 81 80 82 83 86 85 86 85 83 85 81 80 81 79 78 77 77 77 78 78 75 74 71 70
60 64 66 58 66 70 70 71 72 62 69 74 74 78 78 79 83 79 83 83 80 81 82 83 79 83 80 80 79 82 82 79 78 77 77 77 78 77 77 75 72 72 72 72
49 58 50 67 73 76 73 75 74 72 72 75 76 77 81 82 81 81 83 81 79 78 77 75 75 74 75 75 75 76 74 76 77 77 77 77 77 76 74 73 72 72 71 71
50 54 57 65 73 72 70 66 72 71 74 76 77 76 72 80 82 82 80 81 80 80 76 75 76 75 75 74 75 76 75 75 77 78 77 76 75 74 73 73 72 71 70 68
47 49 48 59 74 81 74 59 74 71 75 77 72 66 68 77 81 81 80 79 80 78 76 76 74 75 75 73 74 74 75 76 77 78 77 75 75 73 72 72 69 70 69 65
47 48 56 68 75 76 59 59 72 72 70 69 71 72 75 78 75 76 77 79 77 76 78 78 73 74 73 73 73 75 76 76 76 76 75 74 72 71 71 71 71 69 66 63
47 46 48 69 71 61 64 67 71 71 72 71 70 74 73 75 74 74 74 74 74 73 72 73 75 76 72 73 74 75 74 73 72 72 74 73 71 71 71 69 67 65 64 61
48 49 57 60 58 62 64 64 69 72 74 75 72 69 71 69 70 71 72 72 73 74 73 73 74 76 73 73 74 73 72 72 71 72 72 72 73 69 67 66 65 64 63 60
47 51 54 60 63 65 66 68 70 72 73 76 71 70 69 71 71 71 70 70 72 72 71 71 73 74 74 73 74 73 71 71 71 70 67 67 67 66 66 65 64 64 62 58
47 52 56 59 61 63 65 70 70 72 73 72 72 70 70 69 69 69 70 70 71 71 71 72 73 73 74 74 74 72 71 70 69 65 60 56 51 54 59 56 60 64 63 60
42 49 50 54 60 63 64 67 69 69 70 72 72 70 70 68 69 69 69 70 69 69 70 70 72 72 72 74 74 71 70 69 66 63 61 61 59 55 50 48 46 49 53 59
48 55 57 58 61 65 64 67 69 68 70 67 70 71 70 67 67 64 69 69 69 69 70 71 71 71 72 72 71 70 68 67 65 65 64 62 61 58 58 54 47 45 45 47
55 58 56 60 59 64 66 69 69 69 69 70 70 69 69 67 66 67 66 66 67 67 67 69 71 69 69 68 69 68 67 61 66 64 65 63 63 61 61 60 58 52 48 47
57 60 57 60 61 63 65 67 66 65 65 66 69 69 69 66 65 65 65 67 67 66 65 67 66 63 65 66 66 66 66 65 66 64 62 60 59 57 57 54 53 52 53 51
56 57 59 59 60 62 62 63 61 63 65 64 65 67 67 67 66 65 65 67 66 63 62 62 62 63 65 65 64 64 64 62 63 64 63 61 59 57 53 52 50 50 51 50
55 54 56 56 59 59 60 61 62 63 64 64 65 67 67 66 65 64 62 62 62 62 62 62 63 64 64 64 63 63 63 63 63 63 63 62 61 58 55 54 53 51 51 51
57 58 61 59 59 59 59 62 63 64 63 67 65 65 67 66 63 62 63 63 62 62 62 63 64 64 65 65 64 63 62 62 62 62 62 61 61 58 56 55 54 53 51 52
60 60 61 62 62 60 58 60 61 64 65 66 64 63 63 65 65 64 64 63 61 61 62 64 64 64 63 63 63 62 62 63 62 62 63 61 62 59 59 58 57 54 55 53
58 60 62 62 62 60 60 60 63 63 65 63 63 64 64 64 65 66 65 62 61 62 62 63 63 62 62 63 64 62 64 64 63 61 62 64 62 61 61 57 59 57 58 54
54 57 59 60 62 60 60 60 61 62 62 62 61 61 62 63 66 65 63 63 62 63 63 63 63 61 60 62 63 62 62 63 63 62 63 61 61 61 62 63 61 59 60 58
53 53 59 59 57 58 60 58 60 61 62 62 62 62 63 62 64 65 65 66 62 59 61 62 62 62 62 63 63 62 61 61 60 61 61 62 63 64 59 57 60 61 61 59
55 57 58 58 57 58 60 60 59 59 59 59 60 61 62 62 63 62 60 61 64 62 66 63 60 60 62 62 63 63 64 64 63 63 61 60 61 61 61 61 61 59 57 58
56 57 57 58 58 57 56 58 59 59 59 60 60 61 60 59 58 59 60 57 55 61 63 60 60 61 60 63 63 63 62 62 62 62 61 55 57 56 57 57 59 61 62 59
54 55 56 56 55 55 56 57 58 58 58 58 59 60 61 61 60 58 60 59 57 61 61 56 58 59 63 63 64 63 62 61 60 60 60 58 58 58 59 60 62 62 62 62
53 53 54 54 54 55 56 56 55 56 56 56 56 58 60 60 60 60 60 59 60 59 61 59 61 61 60 62 63 63 62 60 60 60 59 59 60 59 60 60 60 62 62 60
54 52 54 54 54 54 54 55 55 55 56 56 56 58 59 60 59 60 59 61 60 61 61 60 61 61 61 61 61 64 63 61 58 61 62 62 61 60 62 64 63 61 57 57
MSLP
997.80 997.58 997.63 997.49 997.29 997.89 998.82 999.49 999.98 999.81 998.72 998.26 997.35 996.41 995.68 995.55 995.98 996.59 996.96 997.65 998.02 998.47 999.09 999.62 1000.21 1000.67 1001.13 1001.59 1002.27 1002.85 1003.79 1004.55 1004.68 1005.49 1006.41 1007.39 1008.03 1008.44 1008.86 1009.29 1009.61 1009.98 1010.60 1011.22
997.81 997.16 997.13 997.17 996.89 996.98 997.25 997.79 998.24 998.07 997.49 996.92 996.55 996.21 995.35 995.51 995.87 996.34 996.34 996.93 997.54 997.83 998.30 998.85 999.14 999.60 1000.02 1000.57 1001.15 1001.96 1002.85 1003.25 1004.45 1005.35 1006.09 1006.69 1007.36 1008.07 1008.39 1008.71 1009.25 1009.85 1010.37 1011.22
998.31 997.07 997.15 996.85 995.68 995.99 996.27 996.47 996.89 997.41 996.81 996.08 996.46 996.10 995.63 995.42 996.17 996.41 996.21 996.66 997.14 997.16 997.58 998.00 998.51 998.90 999.60 1000.00 1000.72 1001.45 1002.21 1003.23 1003.95 1004.73 1005.40 1006.06 1006.88 1007.47 1007.90 1008.59 1009.27 1009.78 1010.00 1010.31
999.28 997.96 997.01 994.77 994.34 994.67 995.33 995.57 995.85 996.25 995.99 995.44 995.27 995.35 995.24 994.98 995.25 995.77 996.31 996.64 996.90 997.38 998.07 998.42 998.61 999.05 999.37 999.81 1000.31 1001.40 1002.30 1002.88 1003.50 1004.19 1004.99 1005.80 1006.55 1007.10 1007.80 1008.29 1008.61 1009.24 1009.78 1010.59
999.81 998.15 996.67 995.00 994.20 994.29 994.84 995.70 995.93 995.75 995.27 995.02 994.68 995.08 995.04 994.73 994.55 994.96 995.30 996.05 996.61 996.63 997.40 997.92 998.46 999.06 999.47 1000.22 1000.69 1001.07 1001.81 1002.51 1003.18 1003.91 1004.78 1005.47 1006.20 1006.47 1006.83 1007.71 1008.28 1008.64 1009.15 1009.75
1000.46 999.21 997.33 996.02 994.37 993.79 994.47 996.31 995.95 995.64 995.05 994.83 995.04 995.59 995.27 994.62 994.43 994.88 995.33 995.60 996.10 996.63 997.32 998.11 998.84 998.98 999.39 1000.22 1000.70 1001.23 1001.67 1002.33 1003.03 1003.72 1004.40 1005.27 1005.76 1006.50 1007.03 1007.73 1008.71 1009.62 1010.58 1010.91
1001.47 1000.01 998.41 996.99 994.95 994.53 996.46 998.54 997.06 996.19 995.37 994.83 994.93 994.61 994.32 994.67 994.93 994.84 995.21 995.89 996.47 997.04 997.57 998.11 998.80 999.21 999.90 1000.52 1000.96 1001.42 1002.04 1002.73 1003.41 1004.02 1004.69 1005.46 1006.37 1007.14 1008.01 1008.58 1009.39 1010.20 1010.95 1011.84
1002.36 1001.34 1000.63 998.69 996.65 998.53 999.92 998.73 997.73 996.90 996.13 995.52 994.92 994.59 994.85 995.19 995.61 995.79 996.04 996.62 996.93 997.63 998.25 998.77 999.03 999.52 1000.68 1001.46 1001.57 1001.56 1002.59 1003.44 1004.22 1004.82 1005.40 1006.09 1006.89 1007.84 1008.32 1008.90 1009.75 1010.56 1011.77 1012.77
1004.20 1004.12 1003.48 1002.20 1001.74 1001.54 1000.81 999.79 998.55 997.37 996.61 996.21 995.84 995.56 995.87 996.37 996.56 996.81 996.99 997.39 997.75 998.17 998.76 999.31 999.48 999.69 1000.85 1001.85 1001.70 1002.29 1003.26 1004.13 1004.91 1005.56 1006.05 1006.49 1007.16 1008.07 1008.80 1009.47 1010.18 1011.08 1012.11 1013.08
1005.02 1004.34 1003.83 1002.53 1002.04 1001.31 1000.95 1000.18 999.29 998.47 997.78 996.85 996.62 996.79 996.94 997.08 997.53 997.78 998.13 998.41 998.63 998.73 999.69 1000.25 1000.34 1000.75 1001.27 1001.67 1001.95 1002.83 1003.92 1004.80 1005.59 1006.26 1006.94 1007.45 1008.20 1008.90 1009.57 1010.10 1010.69 1011.38 1012.29 1013.31
1005.85 1004.92 1003.39 1002.72 1002.92 1002.66 1001.51 1000.63 999.73 998.59 998.57 998.17 997.40 997.56 997.78 998.07 998.21 998.49 998.82 999.19 999.41 999.90 1000.35 1000.86 1001.04 1001.44 1001.79 1002.02 1002.55 1003.58 1004.48 1005.47 1006.39 1007.25 1008.10 1008.87 1009.74 1010.42 1010.44 1010.79 1010.94 1011.31 1012.14 1012.94
1007.47 1007.02 1006.86 1005.42 1004.12 1003.25 1002.33 1001.24 1000.57 999.89 998.63 998.02 997.77 997.66 998.16 998.75 998.99 999.15 999.56 999.87 1000.17 1000.70 1000.93 1001.35 1001.52 1001.94 1002.44 1002.80 1002.98 1003.94 1005.09 1006.01 1006.95 1007.92 1008.83 1009.46 1010.24 1011.15 1011.58 1011.70 1011.56 1011.49 1011.74 1012.41
1007.49 1006.49 1006.26 1005.77 1004.75 1003.46 1002.98 1001.74 1000.87 1000.09 998.91 998.85 998.33 998.07 998.65 999.27 999.77 999.93 1000.27 1000.69 1001.00 1001.16 1001.28 1001.54 1001.93 1002.50 1003.11 1003.48 1003.86 1004.47 1005.41 1006.33 1007.26 1008.01 1008.83 1009.62 1010.47 1011.09 1011.92 1012.63 1012.34 1012.43 1012.61 1012.89
1006.73 1006.20 1005.59 1005.21 1004.67 1003.69 1002.91 1001.91 1000.90 1000.11 998.83 997.84 998.25 998.83 999.02 999.72 1000.37 1000.61 1001.05 1001.37 1001.67 1001.99 1002.28 1002.26 1002.46 1003.01 1003.43 1003.73 1004.31 1005.07 1005.84 1006.59 1007.39 1008.17 1008.84 1009.67 1010.33 1011.05 1011.57 1012.24 1012.79 1013.45 1013.81 1013.77
1006.35 1006.07 1005.54 1005.11 1004.41 1003.61 1002.93 1001.91 1001.22 1000.56 1000.14 999.65 999.11 998.63 999.38 1000.12 1000.85 1001.19 1001.47 1001.75 1002.14 1002.70 1003.31 1003.34 1003.64 1004.24 1004.23 1004.33 1004.81 1005.41 1006.05 1006.83 1007.53 1008.26 1008.98 1009.63 1010.43 1011.19 1011.81 1012.61 1013.12 1013.71 1014.21 1014.71
1005.85 1005.57 1004.87 1004.56 1004.27 1003.48 1002.99 1002.32 1001.90 1001.21 1000.93 1000.53 1000.37 999.97 999.95 1000.41 1001.13 1001.74 1001.99 1002.28 1002.86 1003.73 1003.98 1004.17 1004.52 1004.78 1004.81 1005.05 1005.55 1006.04 1006.56 1007.08 1007.72 1008.46 1009.31 1010.06 1010.74 1011.33 1012.11 1012.75 1013.49 1013.92 1014.47 1015.08
1005.48 1005.27 1004.78 1004.21 1003.37 1003.06 1002.96 1002.29 1001.91 1001.48 1001.11 1000.63 1000.83 1000.18 1000.57 1001.03 1001.61 1002.08 1002.47 1002.85 1003.33 1004.08 1004.50 1004.71 1004.98 1005.13 1005.27 1005.49 1005.99 1006.54 1006.93 1007.36 1007.84 1008.59 1009.37 1010.07 1010.71 1011.53 1012.23 1012.80 1013.64 1014.24 1014.71 1015.05
1004.25 1004.01 1004.02 1003.78 1003.45 1003.08 1002.34 1001.63 1001.30 1001.01 1000.79 1000.33 1001.09 1001.02 1000.91 1001.21 1001.92 1002.49 1002.78 1003.15 1003.66 1004.37 1004.69 1004.85 1005.23 1005.38 1005.63 1005.97 1006.33 1006.92 1007.23 1007.47 1007.87 1008.48 1009.25 1009.98 1010.55 1011.45 1012.21 1012.75 1013.48 1014.21 1014.75 1015.16
1003.10 1003.15 1003.27 1003.11 1003.03 1002.75 1002.27 1001.66 1001.23 1000.95 1000.73 1000.49 1000.69 1001.29 1001.43 1002.01 1002.10 1002.47 1003.05 1003.52 1003.89 1004.58 1005.17 1005.15 1005.17 1005.60 1006.13 1006.22 1006.52 1006.94 1007.49 1007.84 1008.00 1008.35 1008.97 1009.72 1010.53 1011.25 1011.97 1012.55 1013.27 1013.90 1014.54 1015.18
1001.65 1002.18 1002.39 1002.36 1002.11 1002.00 1001.50 1000.94 1000.58 1000.58 1000.43 1000.73 1000.83 1001.32 1001.77 1002.01 1002.40 1002.73 1003.20 1003.79 1003.98 1004.35 1004.98 1005.48 1005.68 1006.10 1006.30 1006.52 1006.57 1007.00 1007.36 1007.69 1008.03 1008.46 1008.91 1009.46 1010.15 1010.94 1011.61 1012.16 1012.80 1013.49 1014.07 1014.68
1000.87 1001.44 1001.89 1002.03 1001.69 1001.06 1000.86 1000.57 1000.40 1000.43 1000.06 1000.69 1001.05 1001.77 1001.92 1002.39 1002.59 1002.87 1003.63 1004.13 1004.39 1004.52 1004.86 1005.35 1005.92 1006.43 1006.43 1006.49 1006.67 1006.87 1007.03 1007.23 1007.81 1008.37 1008.85 1009.38 1010.05 1010.70 1011.24 1011.89 1012.61 1013.17 1013.62 1014.24
1000.39 1000.94 1001.26 1001.48 1001.27 1001.21 1000.98 1001.01 1000.91 1000.65 1000.52 1000.77 1001.19 1001.60 1001.99 1002.51 1002.64 1003.25 1003.39 1003.36 1004.74 1005.16 1005.20 1005.41 1005.83 1006.39 1006.44 1006.33 1006.53 1006.89 1007.09 1007.32 1007.69 1008.21 1008.55 1009.15 1009.86 1010.43 1011.09 1011.64 1012.18 1012.87 1013.31 1014.01
1000.37 1000.62 1001.18 1001.48 1001.82 1001.77 1001.87 1001.71 1001.52 1001.45 1001.53 1001.63 1001.87 1002.28 1002.29 1002.15 1002.84 1003.65 1003.79 1003.60 1004.60 1005.20 1005.28 1005.63 1006.05 1006.09 1006.27 1006.35 1006.80 1007.11 1007.38 1007.65 1007.90 1008.25 1008.48 1008.96 1009.53 1010.12 1010.76 1011.22 1011.54 1012.11 1013.01 1013.99
1001.57 1001.49 1001.78 1001.94 1001.80 1002.15 1002.34 1002.58 1002.53 1002.76 1002.67 1002.67 1002.51 1002.37 1002.81 1002.79 1003.61 1003.33 1003.53 1004.07 1004.90 1005.24 1005.35 1005.98 1006.15 1006.03 1006.11 1006.52 1006.93 1007.18 1007.46 1007.77 1008.25 1008.59 1008.81 1009.19 1009.66 1010.22 1010.68 1011.28 1011.63 1011.81 1012.52 1013.45
1002.79 1003.09 1002.93 1002.73 1003.17 1003.79 1002.76 1002.97 1002.95 1003.20 1003.18 1003.45 1003.25 1003.23 1003.39 1003.90 1003.33 1003.94 1003.89 1004.69 1005.16 1005.31 1005.73 1006.06 1006.03 1006.23 1006.37 1006.67 1007.10 1007.44 1007.55 1007.58 1007.92 1008.49 1009.07 1009.43 1009.84 1010.22 1010.95 1011.11 1011.79 1011.93 1012.46 1013.30
1004.37 1004.34 1004.25 1004.17 1004.53 1004.26 1004.65 1004.20 1003.64 1003.81 1003.97 1004.46 1005.10 1004.70 1004.58 1004.98 1003.82 1004.06 1004.68 1005.16 1005.59 1005.45 1005.82 1006.03 1005.55 1006.25 1006.61 1006.63 1006.89 1007.18 1007.37 1007.50 1007.79 1008.20 1008.69 1009.28 1009.70 1010.05 1010.42 1010.87 1011.47 1011.99 1012.35 1013.11
1005.61 1005.27 1005.04 1005.04 1004.65 1004.51 1005.49 1005.13 1004.31 1004.42 1005.11 1005.34 1005.97 1005.79 1005.69 1005.37 1004.49 1004.68 1005.50 1005.81 1005.78 1005.67 1005.67 1005.71 1005.99 1006.25 1006.32 1006.31 1006.63 1007.03 1007.39 1007.53 1007.71 1007.77 1008.25 1008.77 1009.47 1009.89 1010.20 1010.73 1011.25 1011.80 1012.14 1012.77
Wind_Speed
20 11 8 5 9 13 8 10 11 10 12 7 10 11 7 9 8 10 14 12 16 16 14 14 15 16 16 16 16 16 16 17 19 15 12 10 10 10 10 10 10 7 8 7
19 19 11 11 8 11 16 10 4 9 11 10 9 9 3 5 9 9 16 14 12 12 15 16 18 17 17 15 16 16 16 19 12 11 11 11 11 11 11 10 5 8 7 9
16 7 8 7 12 10 8 7 12 8 13 6 6 6 3 3 8 8 12 15 11 12 14 13 11 13 13 13 8 14 14 10 11 12 13 13 12 11 10 7 6 8 11 10
5 6 10 11 9 11 10 7 8 6 6 11 11 9 9 7 8 11 10 5 6 7 7 7 4 4 5 8 10 9 8 10 12 14 13 13 12 9 6 8 10 10 8 8
5 10 2 2 6 8 7 2 1 6 8 7 8 6 2 9 9 10 11 10 9 9 6 6 8 7 9 8 9 11 11 11 12 13 13 12 10 10 6 7 7 7 9 11
2 6 6 8 0 6 6 4 13 5 11 8 5 3 7 6 8 9 8 7 9 7 6 9 7 8 10 8 8 8 10 11 11 12 13 11 11 9 4 5 7 6 6 6
0 2 2 7 2 6 10 7 9 8 6 2 7 9 9 7 2 7 8 10 8 8 11 10 7 8 9 7 8 9 10 10 10 9 9 9 9 8 9 9 8 6 7 4
3 3 4 24 10 11 4 6 4 7 8 7 4 7 6 7 7 8 9 7 7 9 7 7 9 12 9 9 9 12 11 11 10 10 9 9 12 9 8 8 8 7 8 7
3 4 3 8 8 5 6 5 10 8 7 7 7 3 7 6 8 7 8 7 6 10 10 6 7 13 14 9 12 13 12 12 11 10 10 10 11 8 6 7 7 6 6 6
6 4 11 15 16 20 19 14 14 14 8 8 3 4 7 10 9 9 8 9 8 13 11 8 8 10 12 11 13 14 13 11 9 9 8 9 6 4 6 5 5 6 6 6
6 8 16 15 20 20 21 16 18 19 10 10 3 5 7 7 9 9 10 9 10 11 11 10 10 11 11 12 14 12 12 10 9 8 9 8 8 5 4 3 2 6 5 7
4 3 3 12 18 22 17 16 15 16 18 17 3 9 10 8 7 9 11 9 11 10 12 10 11 11 9 9 13 14 12 10 8 8 7 7 7 7 17 10 8 7 11 10
5 7 9 13 17 10 18 15 15 16 14 8 1 8 9 9 5 9 9 9 10 10 11 11 11 11 9 9 11 11 11 11 8 8 7 7 6 6 7 5 16 17 11 9
5 10 15 9 13 18 15 10 15 14 16 9 8 6 11 13 9 10 9 7 8 9 8 10 11 10 6 8 10 10 9 12 8 6 7 6 5 5 4 5 4 3 11 8
11 11 12 13 14 10 9 8 14 14 13 9 2 15 14 13 11 10 8 9 10 11 7 9 11 6 6 7 9 9 8 6 7 6 6 6 6 5 5 5 5 5 6 7
7 8 13 13 13 12 6 7 7 11 10 6 4 6 10 12 11 10 10 10 13 8 6 8 8 5 7 8 8 7 6 11 8 7 7 6 6 6 6 5 5 5 5 4
18 18 14 12 13 6 5 5 3 8 11 7 5 10 12 13 11 11 8 8 9 8 7 7 7 6 7 7 8 5 5 6 10 6 6 6 6 6 6 5 5 4 4 4
14 14 12 14 12 11 9 6 8 10 11 7 6 6 13 14 12 10 9 9 9 8 6 6 6 6 6 6 5 4 4 4 5 5 5 6 6 6 7 6 7 7 4 3
21 20 16 17 13 9 8 8 8 9 6 9 12 9 8 9 11 10 9 9 9 8 4 5 9 8 6 5 5 4 4 4 4 4 6 8 8 7 8 7 7 6 6 5
21 16 12 13 9 9 9 8 10 7 8 6 9 12 11 10 10 11 10 8 7 6 7 6 7 6 6 5 6 3 4 6 5 5 6 7 8 8 8 9 9 8 8 6
11 15 15 9 8 2 2 1 4 8 10 7 9 6 6 6 8 9 9 7 5 8 8 8 5 3 3 3 3 2 4 6 6 6 7 7 8 8 8 8 8 7 8 8
10 8 11 8 5 6 7 4 0 4 10 10 7 7 8 5 7 7 6 10 4 7 5 5 2 5 4 5 3 4 5 5 5 5 6 7 8 8 8 8 9 8 8 8
8 9 11 10 9 10 9 10 9 9 8 8 7 5 7 7 7 7 4 4 6 8 6 4 5 10 8 4 5 5 6 6 5 4 5 5 7 7 8 10 9 8 9 9
11 14 13 10 11 12 11 8 10 9 8 8 9 6 5 6 5 4 5 10 12 8 6 5 5 7 7 4 4 5 5 6 5 4 4 5 5 4 5 7 7 8 9 10
14 11 11 13 13 7 8 9 9 10 9 7 8 8 8 5 4 2 7 5 5 7 6 6 6 6 4 4 4 5 5 5 5 5 4 5 5 5 6 7 8 8 9 9
13 10 8 11 5 6 5 5 6 7 8 8 7 5 3 2 4 7 5 5 4 5 3 3 4 3 4 3 4 5 5 5 6 5 6 5 6 6 6 7 7 8 8 7
7 10 9 7 5 6 2 4 6 6 4 4 3 4 3 3 3 5 4 5 4 4 3 1 3 5 4 4 5 5 4 4 5 6 5 6 6 6 7 8 7 7 7 8
Wind_Direction
217 199 169 217 223 198 172 192 185 223 243 191 226 237 234 245 186 172 172 170 188 201 194 187 188 199 207 213 204 193 191 199 206 200 192 185 189 182 185 191 205 187 155 133
210 215 191 226 214 235 216 194 192 186 244 155 231 283 318 154 172 190 161 176 181 182 184 188 195 201 205 203 199 189 191 203 193 181 173 176 173 178 193 200 171 142 148 162
212 196 175 231 210 203 212 210 195 173 223 183 180 171 209 185 200 252 193 189 182 180 183 191 194 194 195 197 169 188 195 180 173 167 171 171 169 182 191 156 146 156 170 174
182 103 185 237 182 175 183 202 203 221 228 227 200 197 196 195 169 199 197 226 206 185 173 187 169 161 135 146 154 157 164 165 165 169 168 164 172 169 141 151 166 166 154 133
140 197 222 13 126 130 142 261 292 234 237 227 269 121 216 211 189 182 178 186 197 193 162 143 132 144 126 132 144 150 160 162 165 162 156 157 152 159 177 154 162 146 147 136
33 133 184 239 170 122 111 10 326 261 220 214 112 155 239 233 150 137 155 158 159 145 116 127 158 147 123 132 136 146 148 149 149 152 149 147 160 157 122 101 83 83 76 118
139 154 310 322 259 76 72 246 322 334 333 144 165 195 204 149 141 148 159 165 127 137 154 162 136 119 113 122 117 117 116 118 120 124 125 116 97 95 102 102 114 115 109 103
81 84 66 343 37 80 273 289 280 332 356 352 311 138 130 138 126 125 120 118 125 116 117 122 123 116 108 111 118 107 105 100 95 95 103 103 107 114 124 132 124 110 102 82
31 74 355 19 82 352 333 297 334 340 345 338 2 69 124 106 92 88 97 96 94 115 109 91 124 127 121 138 118 107 109 112 105 103 114 129 133 137 113 109 123 113 117 118
353 17 344 23 15 5 357 1 348 349 331 343 122 84 101 110 107 96 83 85 94 97 94 90 94 108 125 129 117 116 114 108 108 113 87 70 72 86 111 115 113 122 124 122
300 355 346 353 352 341 335 351 349 347 353 351 121 83 110 105 103 100 100 93 91 100 106 109 114 114 122 120 115 111 109 109 101 88 89 84 61 33 83 53 79 135 137 145
283 329 218 296 320 320 327 336 339 338 327 335 248 132 125 105 108 114 110 109 103 104 105 105 108 105 105 117 125 122 124 120 111 109 109 104 101 77 45 46 48 53 149 149
260 289 300 297 300 302 323 315 344 326 311 269 84 129 115 111 99 103 100 107 112 115 114 113 110 108 108 113 119 117 122 125 119 122 122 121 115 118 114 60 66 50 53 96
279 315 307 300 298 313 313 327 338 336 330 188 139 120 118 116 109 108 107 108 105 100 90 110 112 107 113 110 113 117 118 116 122 127 128 128 128 119 117 115 108 55 38 73
280 281 259 281 296 293 311 342 345 351 351 357 169 136 133 128 127 122 115 109 104 101 91 96 100 94 103 109 114 118 119 122 124 122 120 119 112 110 102 108 103 113 111 68
257 275 291 296 292 301 298 343 328 340 338 312 294 122 123 121 121 119 113 121 121 123 116 107 103 122 103 100 100 97 106 122 116 126 126 124 130 131 124 117 118 120 110 121
253 271 279 286 291 286 274 288 290 306 309 262 236 139 127 123 120 120 109 106 110 115 117 114 129 127 116 114 117 123 127 133 134 121 134 144 143 132 129 126 122 123 136 158
233 235 251 250 275 294 297 311 307 303 300 178 170 164 134 139 138 132 129 123 110 103 121 136 130 121 112 117 109 126 137 146 150 143 133 142 147 131 140 140 139 148 153 167
232 245 250 259 270 253 261 266 273 278 256 166 139 144 134 140 137 131 128 124 121 126 176 151 124 110 105 113 114 137 158 170 154 141 150 139 141 147 148 148 150 152 160 154
225 225 241 238 242 249 260 249 250 226 163 150 143 147 150 141 143 139 136 137 147 147 143 137 118 127 133 141 127 136 142 182 180 144 146 154 153 155 157 154 156 160 166 161
200 210 235 253 248 270 278 277 214 175 143 147 126 127 115 128 131 131 130 140 188 142 142 135 142 148 140 164 158 211 188 170 149 152 151 146 143 149 153 157 161 159 160 161
194 214 224 198 120 76 38 20 196 144 131 126 125 131 114 117 140 152 164 148 169 145 131 134 140 184 166 121 96 112 102 106 134 138 141 144 153 158 155 151 152 162 157 151
94 109 107 106 105 96 75 57 60 65 76 86 102 151 170 148 151 142 118 90 135 137 135 147 188 160 131 107 126 117 116 109 116 134 135 135 153 153 162 166 160 150 139 148
81 88 88 85 82 77 79 59 73 66 64 69 74 64 87 93 40 42 92 108 125 133 136 165 163 126 112 120 139 125 133 130 132 140 132 124 125 130 135 144 149 151 145 150
62 65 70 79 79 68 74 55 53 57 48 30 46 67 58 335 130 130 99 105 124 131 137 161 137 116 117 146 175 150 145 151 137 136 143 141 141 135 148 146 159 155 154 154
38 40 45 57 61 79 38 85 71 39 45 47 11 13 18 1 108 92 86 106 147 129 143 186 140 153 176 167 163 160 153 144 139 147 150 152 152 144 148 148 148 152 152 147
33 36 27 13 0 39 144 151 101 83 79 53 44 7 16 289 44 90 153 161 195 169 168 266 200 195 198 223 186 178 170 159 159 148 152 145 149 148 153 154 157 158 141 147